Home   Weather   Billings   Past weeks
Flag for USA

Past Weather in Billings, Montana, USA — Yesterday and Last 2 Weeks

Now
59 °F

Scattered clouds.


Feels Like: 59 °F
Forecast: 80 / 58 °F
Wind: 5 mph from North

Location: Billings Logan International Airport

Current Time: Jul 21, 2019 at 7:20:53 am

Latest Report: Jul 21, 2019 at 5:53 am


Visibility: 10 mi

Pressure: 30.15 "Hg (26.95 "Hg at 946m altitude)

Humidity: 62%

Dew Point: 46 °F

Location of BillingsLocation

Past Weather in Billings — Graph

°F

Billings Temperature Yesterday

Maximum temperature yesterday: 81 °F (at 3:53 pm)
Minimum temperature yesterday: 59 °F (at 3:53 am)
Average temperature yesterday: 70 °F

High & Low Weather Summary for the Past Weeks

 TemperatureHumidityPressure
High95 °F (Jul 13, 2:53 pm)87% (Jul 6, 5:09 am)30.27 "Hg (Jul 6, 5:09 am)
Low53 °F (Jul 10, 5:53 am)21% (Jul 20, 1:53 pm)29.61 "Hg (Jul 18, 4:53 pm)
Average72 °F53%29.91 "Hg
* Reported Jul 6 5:09 am — Jul 21 5:53 am, Billings. Weather by CustomWeather, © 2019

Note: Actual official high and low records may vary slightly from our data, if they occured in-between our weather recording intervals... More about our weather records

Advertising

Billings Weather History for the Previous 24 Hours

Scroll right to see more
 ConditionsComfort  
Time TempWeatherWind HumidityBarometerVisibility
5:53 am
Sun, Jul 21
59 °FScattered clouds.5 mph62%30.15 "Hg10 mi
4:53 am61 °FPassing clouds.13 mph58%30.10 "Hg10 mi
3:53 am64 °FOvercast.17 mph49%30.07 "Hg10 mi
2:53 am66 °FMostly cloudy.23 mph40%30.04 "Hg10 mi
1:53 am68 °FPassing clouds.9 mph39%30.01 "Hg10 mi
12:53 am66 °FPassing clouds.10 mph42%30.00 "Hg10 mi
11:53 pm
Sat, Jul 20
65 °FClear.10 mph47%30.00 "Hg10 mi
10:53 pm67 °FPassing clouds.10 mph45%30.00 "Hg10 mi
9:53 pm69 °FPassing clouds.10 mph44%29.99 "Hg10 mi
8:53 pm72 °FPassing clouds.10 mph38%29.96 "Hg10 mi
7:53 pm76 °FSunny.13 mph32%29.96 "Hg10 mi
6:53 pm79 °FSunny.10 mph28%29.95 "Hg10 mi
5:53 pm80 °FSunny.8 mph25%29.95 "Hg10 mi
4:53 pm81 °FSunny.14 mph25%29.95 "Hg10 mi
3:53 pm81 °FPassing clouds.12 mph25%29.96 "Hg10 mi
2:53 pm79 °FPassing clouds.10 mph23%29.97 "Hg10 mi
1:53 pm77 °FPassing clouds.7 mph21%29.98 "Hg10 mi
12:53 pm76 °FPassing clouds.8 mph22%29.99 "Hg10 mi
11:53 am74 °FPassing clouds.13 mph25%30.01 "Hg10 mi
10:53 am71 °FPassing clouds.12 mph29%30.03 "Hg10 mi
9:53 am70 °FPassing clouds.9 mph27%30.04 "Hg10 mi
8:53 am66 °FPassing clouds.No wind34%30.05 "Hg10 mi
7:53 am62 °FPassing clouds.3 mph44%30.03 "Hg10 mi
Weather by CustomWeather, © 2019

See weather overview